This is the latest recevied weather packets stored in our database for station/object N7CEE-2. If no packets are shown the sender has not sent any weather packets the latest 10 day(s).
| Time | Temp. | Humidity | Pressure | Rain* | Wind** | Luminosity | Snow |
|---|---|---|---|---|---|---|---|
| 1777631175 | 20.56° C | 40% | 1011.7 hPa | 0 mm | - | 0 W/m² | - |
| 1777630873 | 20.56° C | 40% | 1011.7 hPa | 0 mm | - | 0 W/m² | - |
| 1777630569 | 20° C | 40% | 1011.6 hPa | 0 mm | - | 0 W/m² | - |
| 1777630266 | 20.56° C | 40% | 1011.5 hPa | 0 mm | - | 0 W/m² | - |
| 1777629964 | 20.56° C | 40% | 1011.3 hPa | 0 mm | - | 0 W/m² | - |
| 1777629661 | 20.56° C | 40% | 1011.6 hPa | 0 mm | - | 0 W/m² | - |
| 1777629357 | 20.56° C | 40% | 1011.7 hPa | 0 mm | - | 0 W/m² | - |
| 1777629053 | 20.56° C | 40% | 1011.7 hPa | 0 mm | - | 0 W/m² | - |
| 1777628750 | 20.56° C | 40% | 1011.4 hPa | 0 mm | - | 0 W/m² | - |
| 1777628446 | 20.56° C | 40% | 1011.5 hPa | 0 mm | - | 0 W/m² | - |
| 1777628142 | 20.56° C | 40% | 1011.5 hPa | 0 mm | - | 0 W/m² | - |
| 1777627838 | 20.56° C | 39% | 1011.6 hPa | 0 mm | - | 0 W/m² | - |
| 1777627537 | 20.56° C | 39% | 1011.5 hPa | 0 mm | - | 0 W/m² | - |
| 1777627232 | 21.11° C | 39% | 1011.4 hPa | 0 mm | - | 0 W/m² | - |
| 1777626929 | 21.11° C | 39% | 1011.5 hPa | 0 mm | - | 0 W/m² | - |
| 1777626625 | 21.11° C | 39% | 1011.7 hPa | 0 mm | - | 0 W/m² | - |
| 1777626321 | 20.56° C | 39% | 1011.5 hPa | 0 mm | - | 0 W/m² | - |
| 1777626019 | 21.11° C | 39% | 1011.3 hPa | 0 mm | - | 0 W/m² | - |
| 1777625714 | 21.11° C | 38% | 1011.6 hPa | 0 mm | - | 0 W/m² | - |
| 1777625410 | 21.11° C | 38% | 1011.5 hPa | 0 mm | - | 0 W/m² | - |
| 1777625107 | 21.11° C | 38% | 1011.6 hPa | 0 mm | - | 0 W/m² | - |
| 1777624803 | 21.11° C | 38% | 1011.4 hPa | 0 mm | - | 0 W/m² | - |
| 1777624498 | 21.11° C | 38% | 1011.6 hPa | 0 mm | - | 0 W/m² | - |
| 1777624196 | 21.11° C | 38% | 1011.5 hPa | 0 mm | - | 0 W/m² | - |
| 1777623892 | 21.67° C | 37% | 1011.5 hPa | 0 mm | - | 0 W/m² | - |
* Rain latest hour (hover to see other rain measurements)
** Current wind speed in m/s (hover to see current wind gust speed)